Regional Weather Roundup
Issued by NWS State College, PA

Home | Current Version | Previous Version | Graphics & Text | Print | Product List | Glossary On
Versions: 1 2 3 4 5 6 7 8 9 10 11 12 13 14 15 16 17 18 19 20 21 22 23 24 25 26 27 28 29 30 31 32 33 34 35 36 37 38 39 40 41 42 43 44 45 46 47 48 49 50
000
ASUS41 KCTP 020910
RWRCTP

REGIONAL WEATHER ROUNDUP
NATIONAL WEATHER SERVICE STATE COLLEGE PA
500 AM EDT MON MAY 02 2016

Note: "fair" indicates few or no clouds below 12,000 feet with no
significant weather and/or obstructions to visibility.

* = STATION THAT DOES NOT REPORT PRECIPITATION /E.G. RAIN...SNOW...ETC/
    THUNDER OR FOG.

PAZ002>004-007>009-013>016-020>023-029>032-021000-
WESTERN PENNSYLVANIA

CITY           SKY/WX    TMP DP  RH WIND       PRES   REMARKS
ERIE           CLOUDY    45  44  97 NE8       29.88S
MEADVILLE        N/A    N/A N/A N/A MISG      29.82F
FRANKLIN*      CLOUDY    48  46  93 E7        29.86F
NEW CASTLE     LGT RAIN  51  51 100 SW8       29.86S FOG
BEAVER COUNTY  NOT AVBL
BUTLER*        CLOUDY    54  52  94 CALM      29.90R THUNDER
PITTSBURGH INT LGT RAIN  54  52  93 W3        29.88R
PITTSBURGH     CLOUDY    56  53  90 W8        29.88R
INDIANA*       CLOUDY    59  57  94 S7        29.88F
LATROBE        CLOUDY    57  57 100 SW9       29.87R
WASHINGTON CO* CLOUDY    55  54  94 NW5       29.88F
$$

PAZ004>006-010>012-017>019-024>028-033>037-041-042-045-046-049>053-021000-
CENTRAL PENNSYLVANIA

CITY           SKY/WX    TMP DP  RH WIND       PRES   REMARKS
BRADFORD       LGT RAIN  50  48  93 E5        29.87S
DUBOIS         FOG       52  51  97 NE6       29.86F VSB 1/2
CLEARFIELD     RAIN      51  49  92 E7        29.87F VSB 1/2
JOHNSTOWN      CLOUDY    55  51  86 S8        29.88F
ALTOONA          N/A     53  52  96 S7        29.90F FOG
STATE COLLEGE  TSTM      49  49  98 CALM      29.91F
WILLIAMSPORT   CLOUDY    50  48  93 E7        29.94F
SELINSGROVE    CLOUDY    51  49  92 CALM      29.95F
FT INDIANTOWN  CLOUDY    49  49 100 E6        29.97S
CAPITAL CITY   CLOUDY    52  50  93 E5        29.96S FOG
HARRISBURG     CLOUDY    51  49  92 E7        29.95F FOG
YORK           CLOUDY    52  51  97 E5        29.95S FOG
$$

PAZ038>040-043-044-047-048-054-055-060>062-067>071-021000-
EASTERN PENNSYLVANIA

CITY           SKY/WX    TMP DP  RH WIND       PRES   REMARKS
SCRANTON       CLOUDY    48  44  86 SE5       29.96S
MOUNT POCONO   FOG       42  41  96 CALM      29.96F VSB 1/4
ALLENTOWN      CLOUDY    48  45  89 E5        29.99S FOG
QUAKERTOWN*    CLOUDY    46  46 100 E3        29.99F
READING        CLOUDY    49  46  90 E3        29.97F FOG
LANCASTER      CLOUDY    49  48  97 E5        29.97S FOG
COATESVILLE    FOG       48  48 100 E5        29.98F VSB<1/4
POTTSTOWN      CLOUDY    46  46 100 VRB5      30.00S FOG
BLUE BELL      CLOUDY    45  45 100 CALM      29.98F
DOYLESTOWN     CLOUDY    45  45 100 CALM      29.99S FOG
WILLOW GROVE   NOT AVBL
NORTH PHILA    CLOUDY    48  46  93 E6        30.01F
PHILADELPHIA   LGT RAIN  48  45  89 NE8       29.98F
$$




USA.gov is the U.S. government's official web portal to all federal, state and local government web resources and services.